Weather History for Ottawa International, ON

Change the Weather History Date:

Saturday, December 29, 2012

  Actual Average Record
Temperature  
Mean Temperature 7 °F -  
Max Temperature 14 °F 21 °F 39 °F (2003)
Min Temperature 0 °F 4 °F -5 °F (2011)
Degree Days  
Heating Degree Days 58    
Moisture  
Dew Point 6 °F    
Average Humidity 86    
Maximum Humidity 92    
Minimum Humidity 77    
Precipitation  
Precipitation 0.16 in 0.08 in - ()
Sea Level Pressure  
Sea Level Pressure 29.91 in    
Wind  
Wind Speed 5 mph ()    
Max Wind Speed 12 mph    
Max Gust Speed -    
Visibility 6.8 miles    
Events Snow    
Averages and records for this station are not official NWS values.
T = Trace of Precipitation, MM = Missing Value Source: Averaged Metar Reports

Daily Weather History Graph

Daily Weather History Graph

Search for Another Location

Airport:

Trip Planner

Search our weather history database for the weather conditions in past years. The results will help you decide how hot, cold, wet, or windy it might be!

Date:

Astronomy

Dec. 29, 2012 Rise Set
Actual Time 7:41 AM EST 4:28 PM EST
Civil Twilight 7:07 AM EST 5:02 PM EST
Nautical Twilight 6:30 AM EST 5:39 PM EST
Astronomical Twilight 5:54 AM EST 6:15 PM EST
Moon 6:04 PM EST (12/29) 8:09 AM EST (12/29)
Length of Visible Light 9h 54m
Length of Day
8h 46m
Full, 98% of the Moon is Illuminated
Dec 29
Full
Jan 4
Last Quarter
Jan 11
New
Jan 18
First Quarter
Jan 26
Full

Hourly Weather History & Observations

Time (EST) Temp. Windchill Dew Point Humidity Pressure Visibility Wind Dir Wind Speed Gust Speed Precip Events Conditions
12:00 AM 6.8 °F -2.0 °F 3.2 °F 85% 30.08 in 15.0 mi West 4.6 mph - N/A   Clear
1:00 AM 4 °F - 0 °F 77% 30.08 in 15 mi WSW 4.6 mph - -  
1:00 AM 3.2 °F -6.2 °F -0.4 °F 85% 30.07 in 15.0 mi WSW 4.6 mph - N/A   Clear
2:00 AM 3.2 °F - -0.4 °F 85% 30.06 in 15.0 mi WNW 2.3 mph - N/A   Ice Crystals
3:00 AM 3.2 °F -4.2 °F -0.4 °F 85% 30.06 in 15.0 mi WNW 3.5 mph - N/A   Ice Crystals
4:00 AM 3.2 °F -6.2 °F -0.4 °F 85% 30.04 in 15.0 mi NW 4.6 mph - N/A   Overcast
5:00 AM 3.2 °F - -0.4 °F 85% 30.04 in 15.0 mi Calm Calm - N/A   Mostly Cloudy
6:00 AM 6.8 °F -3.5 °F 3.2 °F 85% 30.02 in 15.0 mi North 5.8 mph - N/A   Overcast
7:00 AM 7 °F - 4 °F 80% 30.02 in 15 mi North 4.6 mph - -   Partly Cloudy
7:00 AM 6.8 °F -3.5 °F 3.2 °F 85% 30.01 in 15.0 mi NNE 5.8 mph - N/A   Mostly Cloudy
8:00 AM 6.8 °F -5.9 °F 3.2 °F 85% 30.00 in 12.0 mi NNE 8.1 mph - N/A   Overcast
9:00 AM 8.6 °F 0.1 °F 5.0 °F 85% 29.99 in 12.0 mi NNE 4.6 mph - N/A   Overcast
10:00 AM 8.6 °F 0.1 °F 5.0 °F 85% 29.99 in 12.0 mi North 4.6 mph - N/A   Overcast
10:30 AM 8.6 °F -1.3 °F 6.8 °F 92% 29.98 in 5.0 mi NE 5.8 mph - N/A Snow Light Snow
11:00 AM 10.4 °F -1.5 °F 6.8 °F 85% 29.95 in 3.0 mi NNE 8.1 mph - N/A Snow Light Snow
11:10 AM 10.4 °F -2.4 °F 6.8 °F 85% 29.94 in 1.5 mi NNE 9.2 mph - N/A Snow Light Snow
12:00 PM 10.4 °F -3.3 °F 8.6 °F 92% 29.89 in 1.5 mi NNE 10.4 mph - N/A Snow Light Snow
1:00 PM 12 °F - 9 °F 81% 29.85 in 2 mi NNE 10.4 mph - - Snow Light Snow
1:00 PM 12.2 °F 0.7 °F 8.6 °F 85% 29.85 in 2.0 mi NE 8.1 mph - N/A Snow Light Snow
1:28 PM 12.2 °F 1.7 °F 10.4 °F 92% 29.84 in 0.8 mi NE 6.9 mph - N/A Snow Light Snow
2:00 PM 14.0 °F 3.9 °F 10.4 °F 86% 29.83 in 2.0 mi NNE 6.9 mph - N/A Snow Light Snow
3:00 PM 14.0 °F 2.9 °F 10.4 °F 86% 29.83 in 1.0 mi ENE 8.1 mph - N/A Snow Light Snow
4:00 PM 14.0 °F 6.5 °F 10.4 °F 86% 29.82 in 1.0 mi North 4.6 mph - N/A Snow Light Snow
4:06 PM 14.0 °F 6.5 °F 10.4 °F 86% 29.83 in 0.8 mi NNE 4.6 mph - N/A Snow Light Snow
5:00 PM 14.0 °F 2.9 °F 10.4 °F 86% 29.81 in 1.8 mi NNW 8.1 mph - N/A Snow Light Snow
6:00 PM 14.0 °F 2.0 °F 10.4 °F 86% 29.81 in 3.0 mi NW 9.2 mph - N/A Snow Light Snow
7:00 PM 13 °F - 10 °F 81% 29.78 in 2 mi NNW 10.4 mph - - Snow Light Snow
7:00 PM 12.2 °F -1.0 °F 10.4 °F 92% 29.78 in 2.0 mi NNW 10.4 mph - N/A Snow Light Snow
8:00 PM 12.2 °F -1.8 °F 8.6 °F 85% 29.78 in 2.0 mi NW 11.5 mph - N/A Snow Light Snow
9:00 PM 12.2 °F -0.2 °F 10.4 °F 92% 29.77 in 2.0 mi WNW 9.2 mph - N/A Snow Light Snow
10:00 PM 12.2 °F -0.2 °F 8.6 °F 85% 29.78 in 3.0 mi NW 9.2 mph - N/A Snow Light Snow
10:21 PM 12.2 °F -1.0 °F 8.6 °F 85% 29.79 in 1.5 mi NW 10.4 mph - N/A Snow Light Snow
11:00 PM 12.2 °F -1.0 °F 8.6 °F 85% 29.79 in 1.5 mi NW 10.4 mph - N/A Snow Light Snow